Showing default

THAICOM 5, 29163

Orbit data source: Space-Track

THAICOM 5, 29163 is a payload satellite owned by Shinawatra (TH) in GEO that was launched on Sat, 27 May 2006 UTC via an ARIANE 5ECA launch vehicle from the French Guiana (FRGUI). Payload-class satellites include a variety of spacecraft equipped with specific instruments for various scientific and technological missions. These include communications satellites like Starlink; space stations such as the ISS; scientific satellites like the Hubble; Earth observation satellites from companies like Planet Labs, Umbra, and HawkEye 360; GPS; miniature CubeSats for education and research; and military/defense satellites.

Not visible in the next 10 days
Identifier
29163, 2006-020B
Orbit
GEO
Country
Flag of UnknownUnknown / THAI
Related business
Manufacturer
Alcatel Alenia F
Mission
Non-operational Commercial Communications
Bus & Motor
SPACEBUS 3000A, S400
Mass
2,766 kg wet, 1,220 kg dry
Launch date (UTC)
2006-05-27 (19 years ago)
Launch vehicle
ARIANE 5ECA
Launch site
French Guiana (FRGUI)
Object type
Payload
Rocket body
Debris
Shape & HBR
Box + 2 Pan, 13.1 m
Radar Cross Section
24.732 m², Large (>1 m²)

Expand to show TLE details & history
Last TLE update: 9 hours ago

TLE from 9 hours ago
0 THAICOM 5
1 29163U 06020B   25299.48395656  .00000104  00000-0  00000+0 0  9996
2 29163   5.4118  75.5654 0007259 147.0087  36.0440  0.99203222 70939
Epoch: 2025-10-26T11:36Z
TLE epoch observation values (Epoch: 2025-10-26T11:36:53.846Z)
Latitude
-0.29332°
Longitude
49.29815°
Altitude
36,063.349 km
Speed
3.066 km/s
True Right ascension
17h 14m 29s
True Declination
0° 17' 35"
Sunlit
Object was in daylight at epoch
Visualization orbit readout
Latitude
Unknown
Longitude
Unknown
Altitude
Unknown
Speed
Unknown
Apparent Right ascension
Unknown
Apparent Declination
Unknown
Sunlit
N/A
Visualization observer readout
Local Sidereal Time
16:23:42
Azimuth
Unknown
Elevation
Unknown
Doppler factor
Unknown
Orbital elements
Apogee altitude
36,120.714 km
Perigee altitude
36,059.059 km
Semi-major axis
42,468.024 km
Eccentricity
0.00073
Inclination
5.4118°
RAAN
75.5654°
Arg. of periapsis
147.0087°
True anomaly
36.09298°
Mean anomaly
36.044°
Eccentric anomaly
36.06849°
Mean motion
0.248 °/min
Orbital period
1,451.62 mins
BSTAR
0
Loading maneuver chart data...
Computing Atmospheric mass density...
Loading historical data...
Loading historical data...
Loading historical data...
Loading historical data...
Loading historical data...
Loading historical data...
Loading historical data...
Other satellites on launch #20 in the year 2006 (2006-05-27 UTC)

Documentation

Showing up to 5 results
|